Regional Weather Roundup
Issued by NWS Cleveland, OH

Home | Current Version | Previous Version | Graphics & Text | Print | Product List | Glossary On
Versions: 1 2 3 4 5 6 7 8 9 10 11 12 13 14 15 16 17 18 19 20 21 22 23 24 25 26 27 28 29 30 31 32 33 34 35 36 37 38 39 40 41 42 43 44 45 46 47 48 49 50
000
ASUS41 KCLE 040210
RWRCLE
OHIO REGIONAL WEATHER ROUNDUP
NATIONAL WEATHER SERVICE CLEVELAND, OH
900 PM EST SAT DEC 03 2016

NOTE: "FAIR" INDICATES FEW OR NO CLOUDS BELOW 12,000 FEET WITH NO
SIGNIFICANT WEATHER AND/OR OBSTRUCTIONS TO VISIBILITY.

OHZ001>008-015>018-024>027-034-035-043-044-040300-
   NORTHWEST OHIO

CITY           SKY/WX    TMP DP  RH WIND       PRES   REMARKS
DEFIANCE       CLOUDY    37  26  64 CALM      30.31S
FINDLAY        CLOUDY    36  24  62 SW5       30.30S
TOLEDO EXPRESS CLOUDY    35  29  78 S3        30.30S
TOLEDO EXEC    CLOUDY    37  30  75 SW3       30.32R
LIMA           CLOUDY    34  26  72 N5        30.30S WCI  30
$$

OHZ009>014-019>023-028>033-038-089-040300-
   NORTHEAST OHIO

CITY           SKY/WX    TMP DP  RH WIND       PRES   REMARKS
CLE-HOPKINS    CLOUDY    38  26  62 SW5       30.31F
CLE-LAKEFRONT  CLOUDY    38  27  64 SW9       30.28F
CUY CO. ARPT   CLOUDY    37  32  81 SW8       30.28S
LORAIN-ELYRIA  CLOUDY    35  26  69 SW5       30.30S
ASHTABULA      CLOUDY    36  34  92 CALM      30.27F
AKRON-CANTON   CLOUDY    36  26  67 W5        30.28F
WOOSTER        CLOUDY    34  26  72 W3        30.30S
MANSFIELD      CLOUDY    34  25  69 CALM      30.29R
YOUNGSTOWN     CLOUDY    36  29  75 W8        30.27R
$$

OHZ042-051>053-060>062-070>072-077>081-040300-
  SOUTHWEST OHIO

CITY           SKY/WX    TMP DP  RH WIND       PRES   REMARKS
CINC-COVINGTON CLOUDY    36  29  75 N5        30.29F
CINC-LUNKEN    CLOUDY    39  33  79 CALM      30.32F
HAMILTON       CLOUDY    33  27  78 CALM      30.32S
DAYTON         CLOUDY    37  27  67 CALM      30.30S
WRIGHT-PAT AFB NOT AVBL
DAYTON GENERAL CLOUDY    36  28  73 E5        30.29S
WILMINGTON     MOCLDY    33  27  78 CALM      30.30S
$$

OHZ036-037-039>041-045>050-054>059-063>069-073>076-082>088-040300-
  CENTRAL AND SOUTHEAST OHIO

CITY           SKY/WX    TMP DP  RH WIND       PRES   REMARKS
COLUMBUS       CLOUDY    37  28  70 NE3       30.31R
OSU AIRPORT    CLOUDY    36  30  79 CALM      30.30S
BOLTON FIELD   CLOUDY    36  31  83 CALM      30.31S
RICKENBACK AFB CLOUDY    37  30  78 CALM      30.31S
NEWARK         CLOUDY    36  28  73 CALM      30.30S
MARION         CLOUDY    35  28  75 W3        30.31S
LANCASTER      CLOUDY    37  31  78 CALM      30.31S
ZANESVILLE     CLOUDY    35  29  78 CALM      30.31S
NEW PHILLY     NOT AVBL
$$



USA.gov is the U.S. government's official web portal to all federal, state and local government web resources and services.